Weather History for Jordan, MT

Change the Weather History Date:

Saturday, February 16, 2013

  Actual Average Record
Temperature  
Mean Temperature 40 °F 23 °F  
Max Temperature 56 °F 35 °F 62 °F (1981)
Min Temperature 24 °F 10 °F -51 °F (1936)
Degree Days  
Heating Degree Days 25 42  
Month to date heating degree days 524 707  
Since 1 July heating degree days 5015 5637  
Cooling Degree Days 0 0  
Month to date cooling degree days 0 0  
Year to date cooling degree days 0 0  
Moisture  
Dew Point 26 °F    
Average Humidity 62    
Maximum Humidity 92    
Minimum Humidity 32    
Precipitation  
Precipitation 0.00 in 0.01 in 0.27 in (2008)
Month to date precipitation 0.02 0.12  
Year to date precipitation 0.35 0.35  
Snow  
Snow 0.00 in - - ()
Month to date snowfall 0.0  
Since 1 July snowfall 0.0  
Snow Depth 0.00 in    
Sea Level Pressure  
Sea Level Pressure 29.93 in    
Wind  
Wind Speed 6 mph (WNW)    
Max Wind Speed 20 mph    
Max Gust Speed 24 mph    
T = Trace of Precipitation, MM = Missing Value Source: NWS Daily Summary

Daily Weather History Graph

Daily Weather History Graph

Search for Another Location

Airport:

Trip Planner

Search our weather history database for the weather conditions in past years. The results will help you decide how hot, cold, wet, or windy it might be!

Date:

Astronomy

Feb. 16, 2013 Rise Set
Actual Time 7:10 AM MST 5:33 PM MST
Civil Twilight 6:39 AM MST 6:05 PM MST
Nautical Twilight 6:03 AM MST 6:40 PM MST
Astronomical Twilight 5:28 AM MST 7:16 PM MST
Moon 9:55 AM MST (2/16) 12:04 AM MST (2/16)
Length of Visible Light 11h 25m
Length of Day
10h 23m
Waxing Crescent, 40% of the Moon is Illuminated
Feb 16
Waxing Crescent
Feb 17
First Quarter
Feb 25
Full
Mar 4
Last Quarter
Mar 11
New

Hourly Weather History & Observations

Time (MST) Temp. Windchill Dew Point Humidity Pressure Visibility Wind Dir Wind Speed Gust Speed Precip Events Conditions
12:48 AM 33.1 °F 24.9 °F 27.0 °F 78% 30.08 in - West 10.4 mph - N/A   Unknown
1:48 AM 32.0 °F 24.8 °F 26.1 °F 79% 30.08 in - West 8.1 mph - N/A   Unknown
2:48 AM 30.0 °F 23.2 °F 25.0 °F 82% 30.07 in - West 6.9 mph - N/A   Unknown
3:48 AM 33.1 °F 23.9 °F 27.0 °F 78% 30.04 in - West 12.7 mph - N/A   Unknown
4:48 AM 32.0 °F 23.0 °F 26.1 °F 79% 30.03 in - West 11.5 mph - N/A   Unknown
5:48 AM 33.1 °F 25.5 °F 26.1 °F 75% 30.03 in - West 9.2 mph - N/A   Unknown
6:48 AM 28.0 °F 24.2 °F 24.1 °F 85% 30.04 in - WNW 3.5 mph - N/A   Unknown
7:48 AM 32.0 °F 25.6 °F 27.0 °F 82% 30.02 in - West 6.9 mph - N/A   Unknown
8:48 AM 39.0 °F 34.0 °F 28.9 °F 67% 30.01 in - West 6.9 mph - N/A   Unknown
9:48 AM 44.1 °F 38.6 °F 28.9 °F 55% 29.99 in - WNW 10.4 mph - N/A   Unknown
10:48 AM 48.0 °F - 28.9 °F 48% 29.98 in - West 10.4 mph - N/A   Unknown
1:48 PM 55.0 °F - 28.9 °F 37% 29.90 in - WNW 15.0 mph 20.7 mph N/A   Unknown
2:48 PM 55.0 °F - 28.0 °F 35% 29.87 in - WNW 13.8 mph - N/A   Unknown
3:48 PM 55.0 °F - 27.0 °F 34% 29.85 in - WNW 10.4 mph - N/A   Unknown
4:48 PM 48.9 °F - 27.0 °F 43% 29.84 in - Calm Calm - N/A   Unknown
5:48 PM 39.9 °F - 26.1 °F 58% 29.85 in - Calm Calm - N/A   Unknown
6:48 PM 32.0 °F - 24.1 °F 73% 29.83 in - Calm Calm - N/A   Unknown
7:48 PM 28.0 °F - 23.0 °F 81% 29.83 in - Calm Calm - N/A   Unknown
8:48 PM 28.9 °F 25.2 °F 24.1 °F 82% 29.80 in - NW 3.5 mph - N/A   Unknown
9:48 PM 27.0 °F - 24.1 °F 89% 29.78 in - Calm Calm - N/A   Unknown
10:48 PM 28.0 °F 20.8 °F 25.0 °F 88% 29.74 in - NW 6.9 mph - N/A   Unknown
11:48 PM 32.0 °F 26.4 °F 27.0 °F 82% 29.70 in - WNW 5.8 mph - N/A   Unknown